This demonstration page uses our WeatherBlox Daily Observations layout. Learn more.

Left ArrowRight Arrow

Hourly Observations for February 6, 2021

Temp ( °F °C ) Dew Point ( °F °C ) Humidity (%) Winds ( mph kmh ) Pressure ( in mb ) Visibility ( mi km ) Precip ( " mm )
12:54 am 00:54 Mostly Cloudy 11 -11.7 7 -13.9 84 84 Calm 30.06 1018 10 16.0934 0 0
1:54 am 01:54 Cloudy 12 -11.1 7 -13.9 80 80 N 7 11 30.06 1018 10 16.0934 0 0
2:54 am 02:54 Cloudy 14 -10 9 -12.8 80 80 N 6 9 30.06 1018 10 16.0934 0 0
3:54 am 03:54 Cloudy 16 -8.9 10 -12.2 77 77 N 6 9 30.06 1018 10 16.0934 0 0
4:18 am 04:18 Cloudy with Light Snow 16 -8.9 11 -11.7 80 80 N 5 7 30.12 1020 3 4.82802 0.001 0.001
4:23 am 04:23 Cloudy with Light Snow 16 -8.9 11 -11.7 80 80 N 3 6 30.12 1020 1.75 2.816345 0.001 0.001
4:54 am 04:54 Cloudy with Light Snow 16 -8.9 12 -11.1 84 84 Calm 30.08 1019 2 3.21868 0.01 0.254
5:07 am 05:07 Cloudy with Light Snow 16 -8.9 11 -11.7 80 80 N 9 15 30.15 1021 2.5 4.02335 0.001 0.001
5:17 am 05:17 Cloudy with Light Snow 16 -8.9 11 -11.7 80 80 N 6 9 30.16 1021 4 6.43736 0.001 0.001
5:24 am 05:24 Cloudy with Light Snow 17 -8.3 12 -11.1 80 80 NNE 7 11 30.15 1021 2.5 4.02335 0.01 0.254
5:35 am 05:35 Cloudy with Light Snow 17 -8.3 11 -11.7 77 77 NNE 10 17 30.16 1021 1.5 2.41401 0.01 0.254
5:44 am 05:44 Mostly Cloudy with Light Snow 16 -8.9 11 -11.7 80 80 NNE 12 19 30.17 1022 1 1.60934 0.01 0.254
5:54 am 05:54 Mostly Cloudy with Light Snow 16 -8.9 11 -11.7 80 80 NNE 13 20 30.14 1021 0.75 1.207005 0.01 0.254
6:07 am 06:07 Mostly Cloudy with Light Snow 16 -8.9 11 -11.7 80 80 NNE 13 20 30.2 1023 1 1.60934 0.01 0.254
6:16 am 06:16 Mostly Cloudy with Light Snow 15 -9.4 11 -11.7 84 84 NNE 9 15 30.21 1023 0.75 1.207005 0.01 0.254
6:54 am 06:54 Mostly Cloudy with Light Snow 15 -9.4 10 -12.2 80 80 N 13 20 30.19 1022 0.75 1.207005 0.05 1.27
7:29 am 07:29 Mostly Cloudy with Light Snow 13 -10.6 9 -12.8 84 84 N 15 24 30.26 1025 1 1.60934 0.01 0.254
7:33 am 07:33 Mostly Cloudy with Light Snow 13 -10.6 9 -12.8 84 84 N 13 20 30.27 1025 0.75 1.207005 0.02 0.508
7:45 am 07:45 Mostly Cloudy with Snow 13 -10.6 9 -12.8 84 84 N 13 20 30.27 1025 0.25 0.402335 0.03 0.762
7:54 am 07:54 Mostly Cloudy with Heavy Snow 13 -10.6 8 -13.3 81 81 N 15 24 30.23 1024 0.25 0.402335 0.03 0.762
8:12 am 08:12 Mostly Cloudy with Snow 11 -11.7 6 -14.4 81 81 N 23 37 30.29 1026 0.5 0.80467 0.01 0.254
8:20 am 08:20 Mostly Cloudy with Light Snow 11 -11.7 6 -14.4 81 81 N 20 31 30.3 1026 1 1.60934 0.01 0.254
8:34 am 08:34 Mostly Cloudy with Light Snow 11 -11.7 6 -14.4 81 81 N 22 35 30.3 1026 0.75 1.207005 0.01 0.254
8:54 am 08:54 Mostly Cloudy with Light Snow 10 -12.2 5 -15 80 80 N 17 28 30.27 1025 0.75 1.207005 0.01 0.254
9:13 am 09:13 Mostly Cloudy with Heavy Snow 10 -12.2 4 -15.6 76 76 N 16 26 30.33 1027 0.25 0.402335 0.001 0.001
9:43 am 09:43 Mostly Cloudy with Haze 9 -12.8 4 -15.6 80 80 N 15 24 30.36 1028 0.5 0.80467 0.02 0.508
9:51 am 09:51 Mostly Cloudy with Haze 9 -13 3 -16 78 78 N 15 24 30.35 1028 0.75 1.207005 0.02 0.508
9:54 am 09:54 Mostly Cloudy with Haze 9 -12.8 3 -16.1 77 77 N 16 26 30.3 1026 0.75 1.207005 0.02 0.508
10:24 am 10:24 Cloudy with Haze 8 -13.3 2 -16.7 76 76 N 18 30 30.37 1028 1.25 2.011675 0.01 0.254
10:31 am 10:31 Cloudy with Snow 8 -13.3 2 -16.7 76 76 N 16 26 30.37 1028 0.75 1.207005 0.01 0.254
10:54 am 10:54 Cloudy with Snow 9 -12.8 3 -16.1 77 77 N 10 17 30.33 1027 0.75 1.207005 0.01 0.254
11:05 am 11:05 Cloudy with Snow 9 -12.8 3 -16.1 77 77 N 13 20 30.37 1028 0.75 1.207005 0.01 0.254
11:45 am 11:45 Cloudy with Snow 9 -12.8 1 -17.2 70 70 N 18 30 30.38 1029 2.5 4.02335 0.01 0.254
11:54 am 11:54 Cloudy with Snow 9 -12.8 1 -17.2 70 70 N 20 31 30.32 1027 0.75 1.207005 0.01 0.254
12:01 pm 12:01 Cloudy with Snow 9 -12.8 1 -17.2 70 70 N 17 28 30.38 1029 1 1.60934 0.001 0.001
12:31 pm 12:31 Cloudy with Light Snow 10 -12.2 2 -16.7 69 69 N 18 30 30.37 1029 2.5 4.02335 0.001 0.001
12:46 pm 12:46 Cloudy with Light Snow 10 -12.2 2 -16.7 69 69 N 15 24 30.36 1028 1.5 2.41401 0.001 0.001
12:54 pm 12:54 Cloudy with Light Snow 10 -12.2 2 -16.7 69 69 N 15 24 30.3 1026 1.5 2.41401 0.001 0.001
1:00 pm 13:00 Cloudy with Light Snow 10 -12.2 2 -16.7 69 69 N 14 22 30.35 1028 3 4.82802 0.001 0.001
1:54 pm 13:54 Cloudy with Light Snow 11 -11.7 2 -16.7 67 67 N 15 24 30.29 1026 7 11.26538 0.001 0.001
2:04 pm 14:04 Cloudy with Light Snow 11 -11.7 2 -16.7 67 67 N 18 30 30.34 1027 9 14.48406 0.001 0.001
2:54 pm 14:54 Cloudy with Light Snow 10 -12.2 0 -17.8 63 63 N 18 30 30.27 1025 9 14.48406 0.001 0.001
3:54 pm 15:54 Cloudy with Light Snow 10 -12.2 0 -17.8 63 63 N 14 22 30.3 1026 10 16.0934 0.001 0.001
4:54 pm 16:54 Sunny with Light Snow 8 -13.3 -2 -18.9 63 63 N 9 15 30.28 1025 9 14.48406 0.001 0.001
5:54 pm 17:54 Clear 4 -15.6 -4 -20 69 69 NE 9 15 30.29 1026 10 16.0934 0.001 0.001
6:54 pm 18:54 Clear 2 -16.7 -5 -20.6 72 72 N 3 6 30.31 1026 10 16.0934 0 0
7:54 pm 19:54 Clear 0 -17.8 -4 -20 83 83 N 3 6 30.31 1026 10 16.0934 0 0
8:54 pm 20:54 Clear -6 -21.1 -11 -23.9 78 78 NNE 7 11 30.33 1027 7 11.26538 0 0
9:54 pm 21:54 Clear -2 -18.9 -6 -21.1 83 83 N 6 9 30.32 1027 10 16.0934 0 0
10:54 pm 22:54 Mostly Clear -4 -20 -8 -22.2 83 83 Calm 30.33 1027 10 16.0934 0 0
11:54 pm 23:54 Clear -5 -20.6 -10 -23.3 79 79 Calm 30.31 1026 10 16.0934 0 0

Powered by AerisWeather